Time,TemperatureF,DewpointF,PressureIn,WindDirection,WindDirectionDegrees,WindSpeedMPH,WindSpeedGustMPH,Humidity,HourlyPrecipIn,Conditions,Clouds,dailyrainin,SoftwareType,DateUTC
2013-03-19 00:04:00,39.5,30.2,30.21,NNE,19,0.0,0.0,69,0.00,,---,0.00,VWS V14.01,2013-03-19 07:04:00,
2013-03-19 00:09:00,39.5,30.2,30.21,NNE,19,0.0,0.0,69,0.00,,---,0.00,VWS V14.01,2013-03-19 07:09:00,
2013-03-19 00:14:00,39.5,30.2,30.21,NNE,31,0.0,0.0,69,0.00,,---,0.00,VWS V14.01,2013-03-19 07:14:00,
2013-03-19 00:19:00,39.5,30.2,30.21,NNE,31,0.0,0.0,69,0.00,,---,0.00,VWS V14.01,2013-03-19 07:19:00,
2013-03-19 00:24:00,39.3,30.0,30.21,NNE,31,0.0,0.0,69,0.00,,---,0.00,VWS V14.01,2013-03-19 07:24:00,
2013-03-19 00:29:00,39.3,30.4,30.21,NNE,31,0.0,0.0,70,0.00,,---,0.00,VWS V14.01,2013-03-19 07:29:00,
2013-03-19 00:34:00,39.2,30.2,30.21,NNE,31,0.0,0.0,70,0.00,,---,0.00,VWS V14.01,2013-03-19 07:34:00,
2013-03-19 00:39:00,39.1,30.2,30.21,NNE,31,0.0,0.0,70,0.00,,---,0.00,VWS V14.01,2013-03-19 07:39:00,
2013-03-19 00:44:00,39.1,30.5,30.21,NNE,31,0.0,0.0,71,0.00,,---,0.00,VWS V14.01,2013-03-19 07:44:00,
2013-03-19 00:49:00,38.9,30.3,30.20,NNE,31,0.0,0.0,71,0.00,,---,0.00,VWS V14.01,2013-03-19 07:49:00,
2013-03-19 00:54:00,38.8,30.6,30.20,NNE,31,0.0,0.0,72,0.00,,---,0.00,VWS V14.01,2013-03-19 07:54:00,
2013-03-19 00:59:00,38.8,30.6,30.20,NNE,31,0.0,0.0,72,0.00,,---,0.00,VWS V14.01,2013-03-19 07:59:00,
2013-03-19 01:04:00,38.6,30.4,30.20,NNE,31,0.0,0.0,72,0.00,,---,0.00,VWS V14.01,2013-03-19 08:04:00,
2013-03-19 01:09:00,38.6,30.7,30.20,NNE,31,0.0,0.0,73,0.00,,---,0.00,VWS V14.01,2013-03-19 08:09:00,
2013-03-19 01:14:00,38.5,30.6,30.20,NNE,31,0.0,0.0,73,0.00,,---,0.00,VWS V14.01,2013-03-19 08:14:00,
2013-03-19 01:20:00,38.5,31.0,30.20,NNE,29,0.0,0.0,74,0.00,,---,0.00,VWS V14.01,2013-03-19 08:20:00,
2013-03-19 01:25:00,38.5,31.0,30.20,NNE,28,0.0,0.0,74,0.00,,---,0.00,VWS V14.01,2013-03-19 08:25:00,
2013-03-19 01:30:00,38.3,30.8,30.19,NNE,28,0.0,0.0,74,0.00,,---,0.00,VWS V14.01,2013-03-19 08:30:00,
2013-03-19 01:35:00,38.3,30.8,30.20,NNE,28,0.0,0.0,74,0.00,,---,0.00,VWS V14.01,2013-03-19 08:35:00,
2013-03-19 01:40:00,38.3,30.8,30.19,NNE,28,0.0,0.0,74,0.00,,---,0.00,VWS V14.01,2013-03-19 08:40:00,
2013-03-19 01:45:00,38.2,31.0,30.19,NNE,28,0.0,0.0,75,0.00,,---,0.00,VWS V14.01,2013-03-19 08:45:00,
2013-03-19 01:50:00,38.0,30.8,30.19,NNE,29,0.0,0.0,75,0.00,,---,0.00,VWS V14.01,2013-03-19 08:50:00,
2013-03-19 01:55:00,38.0,30.8,30.18,NNE,28,0.0,0.0,75,0.00,,---,0.00,VWS V14.01,2013-03-19 08:55:00,
2013-03-19 02:00:00,37.9,30.7,30.18,NNE,29,0.0,0.0,75,0.00,,---,0.00,VWS V14.01,2013-03-19 09:00:00,
2013-03-19 02:05:00,37.9,31.0,30.18,NNE,29,0.0,0.0,76,0.00,,---,0.00,VWS V14.01,2013-03-19 09:05:00,
2013-03-19 02:10:00,37.8,30.9,30.18,NNE,29,0.0,0.0,76,0.00,,---,0.00,VWS V14.01,2013-03-19 09:10:00,
2013-03-19 02:15:00,37.6,30.7,30.18,NNE,28,0.0,0.0,76,0.00,,---,0.00,VWS V14.01,2013-03-19 09:15:00,
2013-03-19 02:20:00,37.6,30.7,30.18,NNE,28,0.0,0.0,76,0.00,,---,0.00,VWS V14.01,2013-03-19 09:20:00,
2013-03-19 02:25:00,37.5,30.6,30.18,NNE,29,0.0,0.0,76,0.00,,---,0.00,VWS V14.01,2013-03-19 09:25:00,
2013-03-19 02:30:00,37.3,30.4,30.18,NNE,28,0.0,0.0,76,0.00,,---,0.00,VWS V14.01,2013-03-19 09:30:00,
2013-03-19 02:35:00,37.3,30.4,30.18,NNE,28,0.0,0.0,76,0.00,,---,0.00,VWS V14.01,2013-03-19 09:35:00,
2013-03-19 02:41:00,37.2,30.7,30.18,NNE,28,0.0,0.0,77,0.00,,---,0.00,VWS V14.01,2013-03-19 09:41:00,
2013-03-19 02:46:00,37.2,30.7,30.18,NNE,29,0.0,0.0,77,0.00,,---,0.00,VWS V14.01,2013-03-19 09:46:00,
2013-03-19 02:51:00,37.2,30.7,30.17,NNE,28,0.0,0.0,77,0.00,,---,0.00,VWS V14.01,2013-03-19 09:51:00,
2013-03-19 02:56:00,37.0,30.5,30.17,NNE,28,0.0,0.0,77,0.00,,---,0.00,VWS V14.01,2013-03-19 09:56:00,
2013-03-19 03:01:00,37.0,30.5,30.17,NNE,28,0.0,0.0,77,0.00,,---,0.00,VWS V14.01,2013-03-19 10:01:00,
2013-03-19 03:06:00,37.2,31.0,30.17,NNE,28,0.0,0.0,78,0.00,,---,0.00,VWS V14.01,2013-03-19 10:06:00,
2013-03-19 03:11:00,37.2,31.0,30.17,NNE,28,0.0,0.0,78,0.00,,---,0.00,VWS V14.01,2013-03-19 10:11:00,
2013-03-19 03:16:00,37.0,30.8,30.17,NNE,28,0.0,0.0,78,0.00,,---,0.00,VWS V14.01,2013-03-19 10:16:00,
2013-03-19 03:21:00,37.0,30.8,30.16,NNE,28,0.0,0.0,78,0.00,,---,0.00,VWS V14.01,2013-03-19 10:21:00,
2013-03-19 03:27:00,37.0,30.8,30.16,NNE,29,0.0,0.0,78,0.00,,---,0.00,VWS V14.01,2013-03-19 10:27:00,
2013-03-19 03:32:00,37.0,30.8,30.16,NNE,28,0.0,0.0,78,0.00,,---,0.00,VWS V14.01,2013-03-19 10:32:00,
2013-03-19 03:37:00,37.0,30.8,30.16,NNE,28,0.0,0.0,78,0.00,,---,0.00,VWS V14.01,2013-03-19 10:37:00,
2013-03-19 03:42:00,36.9,30.7,30.16,NNE,28,0.0,0.0,78,0.00,,---,0.00,VWS V14.01,2013-03-19 10:42:00,
2013-03-19 03:47:00,36.9,30.7,30.15,NNE,28,0.0,0.0,78,0.00,,---,0.00,VWS V14.01,2013-03-19 10:47:00,
2013-03-19 03:52:00,36.9,30.7,30.15,NNE,28,0.0,0.0,78,0.00,,---,0.00,VWS V14.01,2013-03-19 10:52:00,
2013-03-19 03:57:00,36.8,30.6,30.15,NNE,29,0.0,0.0,78,0.00,,---,0.00,VWS V14.01,2013-03-19 10:57:00,
2013-03-19 04:02:00,36.8,30.6,30.15,NNE,29,0.0,0.0,78,0.00,,---,0.00,VWS V14.01,2013-03-19 11:02:00,
2013-03-19 04:07:00,36.8,30.6,30.14,NNE,28,0.0,0.0,78,0.00,,---,0.00,VWS V14.01,2013-03-19 11:07:00,
2013-03-19 04:12:00,36.8,30.6,30.14,NNE,28,0.0,0.0,78,0.00,,---,0.00,VWS V14.01,2013-03-19 11:12:00,
2013-03-19 04:17:00,36.8,30.6,30.14,NNE,28,0.0,0.0,78,0.00,,---,0.00,VWS V14.01,2013-03-19 11:17:00,
2013-03-19 04:22:00,36.8,30.9,30.14,NNE,28,0.0,0.0,79,0.00,,---,0.00,VWS V14.01,2013-03-19 11:22:00,
2013-03-19 04:27:00,36.8,30.9,30.14,NNE,28,0.0,0.0,79,0.00,,---,0.00,VWS V14.01,2013-03-19 11:27:00,
2013-03-19 04:32:00,36.8,30.9,30.13,NNE,28,0.0,0.0,79,0.00,,---,0.00,VWS V14.01,2013-03-19 11:32:00,
2013-03-19 04:38:00,36.8,30.9,30.13,NNE,28,0.0,0.0,79,0.00,,---,0.00,VWS V14.01,2013-03-19 11:38:00,
2013-03-19 04:43:00,36.8,30.9,30.13,NNE,21,0.0,0.0,79,0.00,,---,0.00,VWS V14.01,2013-03-19 11:43:00,
2013-03-19 04:48:00,36.9,31.0,30.12,NNE,21,0.0,0.0,79,0.00,,---,0.00,VWS V14.01,2013-03-19 11:48:00,
2013-03-19 04:53:00,36.9,31.0,30.12,NNE,21,0.0,0.0,79,0.00,,---,0.00,VWS V14.01,2013-03-19 11:53:00,
2013-03-19 04:58:00,36.9,31.0,30.12,NNE,21,0.0,0.0,79,0.00,,---,0.00,VWS V14.01,2013-03-19 11:58:00,
2013-03-19 05:03:00,36.9,31.0,30.11,NNE,21,0.0,0.0,79,0.00,,---,0.00,VWS V14.01,2013-03-19 12:03:00,
2013-03-19 05:08:00,36.9,31.0,30.11,NE,49,0.0,0.0,79,0.00,,---,0.00,VWS V14.01,2013-03-19 12:08:00,
2013-03-19 05:13:00,36.9,31.0,30.11,NE,49,0.0,0.0,79,0.00,,---,0.00,VWS V14.01,2013-03-19 12:13:00,
2013-03-19 05:18:00,36.9,30.7,30.11,NE,49,0.0,0.0,78,0.00,,---,0.00,VWS V14.01,2013-03-19 12:18:00,
2013-03-19 05:23:00,36.9,30.7,30.11,NE,47,0.0,0.0,78,0.00,,---,0.00,VWS V14.01,2013-03-19 12:23:00,
2013-03-19 05:28:00,37.0,30.5,30.11,NE,47,0.0,0.0,77,0.00,,---,0.00,VWS V14.01,2013-03-19 12:28:00,
2013-03-19 05:33:00,37.0,30.5,30.11,NE,44,0.0,0.0,77,0.00,,---,0.00,VWS V14.01,2013-03-19 12:33:00,
2013-03-19 05:38:00,37.0,30.5,30.10,NE,37,0.0,0.0,77,0.00,,---,0.00,VWS V14.01,2013-03-19 12:38:00,
2013-03-19 05:44:00,37.0,30.1,30.10,NNE,19,0.0,0.0,76,0.00,,---,0.00,VWS V14.01,2013-03-19 12:44:00,
2013-03-19 05:49:00,37.0,30.1,30.10,NNE,17,0.0,0.0,76,0.00,,---,0.00,VWS V14.01,2013-03-19 12:49:00,
2013-03-19 05:54:00,37.0,30.1,30.10,NNE,17,0.0,0.0,76,0.00,,---,0.00,VWS V14.01,2013-03-19 12:54:00,
2013-03-19 05:59:00,36.9,29.7,30.10,NNE,17,0.0,0.0,75,0.00,,---,0.00,VWS V14.01,2013-03-19 12:59:00,
2013-03-19 06:04:00,36.9,29.7,30.09,NNE,17,0.0,0.0,75,0.00,,---,0.00,VWS V14.01,2013-03-19 13:04:00,
2013-03-19 06:09:00,36.8,29.6,30.09,NNE,17,0.0,0.0,75,0.00,,---,0.00,VWS V14.01,2013-03-19 13:09:00,
2013-03-19 06:14:00,36.8,29.6,30.09,NNE,17,0.0,0.0,75,0.00,,---,0.00,VWS V14.01,2013-03-19 13:14:00,
2013-03-19 06:19:00,36.6,29.4,30.09,North,11,0.0,0.0,75,0.00,,---,0.00,VWS V14.01,2013-03-19 13:19:00,
2013-03-19 06:24:00,36.6,29.4,30.09,NNE,12,0.0,0.0,75,0.00,,---,0.00,VWS V14.01,2013-03-19 13:24:00,
2013-03-19 06:29:00,36.5,29.3,30.09,North,11,0.0,0.0,75,0.00,,---,0.00,VWS V14.01,2013-03-19 13:29:00,
2013-03-19 06:34:00,36.5,29.3,30.09,North,11,0.0,0.0,75,0.00,,---,0.00,VWS V14.01,2013-03-19 13:34:00,
2013-03-19 06:39:00,36.6,29.4,30.08,NNE,13,0.0,0.0,75,0.00,,---,0.00,VWS V14.01,2013-03-19 13:39:00,
2013-03-19 06:44:00,36.6,29.4,30.08,NNE,13,0.0,0.0,75,0.00,,---,0.00,VWS V14.01,2013-03-19 13:44:00,
2013-03-19 06:49:00,36.6,29.4,30.08,NNE,13,0.0,0.0,75,0.00,,---,0.00,VWS V14.01,2013-03-19 13:49:00,
2013-03-19 06:54:00,36.6,29.4,30.08,NNE,13,0.0,0.0,75,0.00,,---,0.00,VWS V14.01,2013-03-19 13:54:00,
2013-03-19 07:00:00,36.5,29.3,30.07,NNE,15,0.0,0.0,75,0.00,,---,0.00,VWS V14.01,2013-03-19 14:00:00,
2013-03-19 07:05:00,36.6,29.4,30.07,NNE,18,0.0,0.0,75,0.00,,---,0.00,VWS V14.01,2013-03-19 14:05:00,
2013-03-19 07:10:00,36.6,29.4,30.07,NNE,22,0.0,0.0,75,0.00,,---,0.00,VWS V14.01,2013-03-19 14:10:00,
2013-03-19 07:15:00,36.6,29.4,30.07,NNW,327,0.0,0.0,75,0.00,,---,0.00,VWS V14.01,2013-03-19 14:15:00,
2013-03-19 07:20:00,36.5,29.3,30.07,NNW,327,0.0,0.0,75,0.00,,---,0.00,VWS V14.01,2013-03-19 14:20:00,
2013-03-19 07:25:00,36.6,29.4,30.07,NNE,32,0.0,0.0,75,0.00,,---,0.00,VWS V14.01,2013-03-19 14:25:00,
2013-03-19 07:30:00,36.6,29.4,30.07,NNE,32,0.0,0.0,75,0.00,,---,0.00,VWS V14.01,2013-03-19 14:30:00,
2013-03-19 07:35:00,36.6,29.4,30.07,NNE,32,0.0,0.0,75,0.00,,---,0.00,VWS V14.01,2013-03-19 14:35:00,
2013-03-19 07:40:00,36.6,29.4,30.07,North,360,0.0,0.0,75,0.00,,---,0.00,VWS V14.01,2013-03-19 14:40:00,
2013-03-19 07:45:00,36.6,29.4,30.06,North,360,0.0,0.0,75,0.00,,---,0.00,VWS V14.01,2013-03-19 14:45:00,
2013-03-19 07:50:00,36.6,29.4,30.06,North,351,0.0,0.0,75,0.00,,---,0.00,VWS V14.01,2013-03-19 14:50:00,
2013-03-19 07:56:00,36.6,29.4,30.06,North,351,0.0,0.0,75,0.00,,---,0.00,VWS V14.01,2013-03-19 14:56:00,
2013-03-19 08:01:00,36.8,29.6,30.06,North,351,0.0,0.0,75,0.00,,---,0.00,VWS V14.01,2013-03-19 15:01:00,
2013-03-19 08:06:00,36.8,29.6,30.06,North,355,0.0,0.0,75,0.00,,---,0.00,VWS V14.01,2013-03-19 15:06:00,
2013-03-19 08:11:00,36.9,29.7,30.06,North,351,0.0,0.0,75,0.00,,---,0.00,VWS V14.01,2013-03-19 15:11:00,
2013-03-19 08:16:00,36.9,29.7,30.06,North,351,0.0,0.0,75,0.00,,---,0.00,VWS V14.01,2013-03-19 15:16:00,
2013-03-19 08:22:00,37.0,29.8,30.06,North,351,0.0,0.0,75,0.00,,---,0.00,VWS V14.01,2013-03-19 15:22:00,
2013-03-19 08:27:00,37.2,30.0,30.06,North,351,0.0,0.0,75,0.00,,---,0.00,VWS V14.01,2013-03-19 15:27:00,
2013-03-19 08:32:00,37.3,30.1,30.05,North,351,0.0,0.0,75,0.00,,---,0.00,VWS V14.01,2013-03-19 15:32:00,
2013-03-19 08:37:00,37.3,30.1,30.05,North,351,0.0,0.0,75,0.00,,---,0.00,VWS V14.01,2013-03-19 15:37:00,
2013-03-19 08:42:00,37.5,30.0,30.05,NNW,335,0.0,0.0,74,0.00,,---,0.00,VWS V14.01,2013-03-19 15:42:00,
2013-03-19 08:47:00,37.8,30.3,30.05,NNW,335,0.0,0.0,74,0.00,,---,0.00,VWS V14.01,2013-03-19 15:47:00,
2013-03-19 08:52:00,37.9,30.0,30.05,North,11,0.0,0.0,73,0.00,,---,0.00,VWS V14.01,2013-03-19 15:52:00,
2013-03-19 08:57:00,38.0,30.1,30.06,North,11,0.0,0.0,73,0.00,,---,0.00,VWS V14.01,2013-03-19 15:57:00,
2013-03-19 09:02:00,38.2,30.0,30.05,North,11,0.0,0.0,72,0.00,,---,0.00,VWS V14.01,2013-03-19 16:02:00,
2013-03-19 09:07:00,38.5,29.9,30.05,North,11,0.0,0.0,71,0.00,,---,0.00,VWS V14.01,2013-03-19 16:07:00,
2013-03-19 09:12:00,38.6,30.0,30.05,North,11,0.0,0.0,71,0.00,,---,0.00,VWS V14.01,2013-03-19 16:12:00,
2013-03-19 09:17:00,39.1,30.2,30.05,North,11,0.0,0.0,70,0.00,,---,0.00,VWS V14.01,2013-03-19 16:17:00,
2013-03-19 09:23:00,39.3,30.0,30.05,North,5,0.0,0.0,69,0.00,,---,0.00,VWS V14.01,2013-03-19 16:23:00,
2013-03-19 09:28:00,39.6,30.3,30.05,North,5,0.0,0.0,69,0.00,,---,0.00,VWS V14.01,2013-03-19 16:28:00,
2013-03-19 09:33:00,39.8,30.1,30.04,NW,319,0.0,0.0,68,0.00,,---,0.00,VWS V14.01,2013-03-19 16:33:00,
2013-03-19 09:38:00,40.1,30.0,30.04,NW,319,0.0,0.0,67,0.00,,---,0.00,VWS V14.01,2013-03-19 16:38:00,
2013-03-19 09:43:00,40.2,29.8,30.04,NNW,338,0.0,0.0,66,0.00,,---,0.00,VWS V14.01,2013-03-19 16:43:00,
2013-03-19 09:48:00,40.6,30.1,30.04,NNW,338,0.0,0.0,66,0.00,,---,0.00,VWS V14.01,2013-03-19 16:48:00,
2013-03-19 09:53:00,40.9,30.1,30.04,NNW,338,0.0,0.0,65,0.00,,---,0.00,VWS V14.01,2013-03-19 16:53:00,
2013-03-19 09:58:00,41.3,29.7,30.04,NNE,19,0.0,0.0,63,0.00,,---,0.00,VWS V14.01,2013-03-19 16:58:00,
2013-03-19 10:03:00,41.6,29.6,30.03,NNW,338,0.0,0.0,62,0.00,,---,0.00,VWS V14.01,2013-03-19 17:03:00,
2013-03-19 10:08:00,41.9,29.5,30.04,North,350,0.0,0.0,61,0.00,,---,0.00,VWS V14.01,2013-03-19 17:08:00,
2013-03-19 10:13:00,42.1,28.8,30.03,North,350,0.0,0.0,59,0.00,,---,0.00,VWS V14.01,2013-03-19 17:13:00,
2013-03-19 10:18:00,42.2,28.5,30.04,North,11,0.0,0.0,58,0.00,,---,0.00,VWS V14.01,2013-03-19 17:18:00,
2013-03-19 10:23:00,42.5,27.9,30.04,North,11,0.0,0.0,56,0.00,,---,0.00,VWS V14.01,2013-03-19 17:23:00,
2013-03-19 10:28:00,42.8,27.8,30.03,North,10,0.0,0.0,55,0.00,,---,0.00,VWS V14.01,2013-03-19 17:28:00,
2013-03-19 10:33:00,43.2,27.7,30.03,NNE,27,0.0,0.0,54,0.00,,---,0.00,VWS V14.01,2013-03-19 17:33:00,
2013-03-19 10:39:00,43.5,27.5,30.03,NW,323,0.0,0.0,53,0.00,,---,0.00,VWS V14.01,2013-03-19 17:39:00,
2013-03-19 10:44:00,43.8,27.3,30.03,NNW,335,0.0,0.0,52,0.00,,---,0.00,VWS V14.01,2013-03-19 17:44:00,
2013-03-19 10:49:00,44.1,27.6,30.02,NNW,335,0.0,0.0,52,0.00,,---,0.00,VWS V14.01,2013-03-19 17:49:00,
2013-03-19 10:54:00,44.3,26.9,30.02,NNW,343,0.0,0.0,50,0.00,,---,0.00,VWS V14.01,2013-03-19 17:54:00,
2013-03-19 10:59:00,44.6,27.1,30.01,NNW,342,0.0,0.0,50,0.00,,---,0.00,VWS V14.01,2013-03-19 17:59:00,
2013-03-19 11:04:00,44.9,25.9,30.01,NNW,343,0.0,0.0,47,0.00,,---,0.00,VWS V14.01,2013-03-19 18:04:00,
2013-03-19 11:09:00,45.1,26.1,30.01,NNW,334,0.0,0.0,47,0.00,,---,0.00,VWS V14.01,2013-03-19 18:09:00,
2013-03-19 11:14:00,45.1,25.6,30.01,NNW,328,0.0,0.0,46,0.00,,---,0.00,VWS V14.01,2013-03-19 18:14:00,
2013-03-19 11:19:00,45.4,24.8,30.01,NNW,329,0.0,0.0,44,0.00,,---,0.00,VWS V14.01,2013-03-19 18:19:00,
2013-03-19 11:24:00,45.8,25.1,30.00,NNW,329,0.0,0.0,44,0.00,,---,0.00,VWS V14.01,2013-03-19 18:24:00,
2013-03-19 11:29:00,46.1,24.3,30.00,WNW,297,0.0,0.0,42,0.00,,---,0.00,VWS V14.01,2013-03-19 18:29:00,
2013-03-19 11:34:00,46.7,24.8,30.00,WNW,296,0.0,0.0,42,0.00,,---,0.00,VWS V14.01,2013-03-19 18:34:00,
2013-03-19 11:39:00,47.1,24.0,30.00,WNW,296,0.0,0.0,40,0.00,,---,0.00,VWS V14.01,2013-03-19 18:39:00,
2013-03-19 11:45:00,47.6,23.9,30.00,North,349,0.0,0.0,39,0.00,,---,0.00,VWS V14.01,2013-03-19 18:45:00,
2013-03-19 11:50:00,48.0,23.6,30.00,NNE,13,0.0,0.0,38,0.00,,---,0.00,VWS V14.01,2013-03-19 18:50:00,
2013-03-19 11:55:00,48.6,24.2,30.00,North,9,0.0,0.0,38,0.00,,---,0.00,VWS V14.01,2013-03-19 18:55:00,
2013-03-19 12:00:00,49.1,24.0,29.99,North,9,0.0,0.0,37,0.00,,---,0.00,VWS V14.01,2013-03-19 19:00:00,
2013-03-19 12:05:00,49.5,23.0,29.99,NNW,327,0.0,0.0,35,0.00,,---,0.00,VWS V14.01,2013-03-19 19:05:00,
2013-03-19 12:10:00,50.1,23.5,29.99,NNW,327,0.0,0.0,35,0.00,,---,0.00,VWS V14.01,2013-03-19 19:10:00,
2013-03-19 12:15:00,50.2,22.2,29.98,NNW,332,0.0,0.0,33,0.00,,---,0.00,VWS V14.01,2013-03-19 19:15:00,
2013-03-19 12:20:00,51.0,21.5,29.98,NW,319,0.0,0.0,31,0.00,,---,0.00,VWS V14.01,2013-03-19 19:20:00,
2013-03-19 12:25:00,51.6,22.7,29.98,NW,319,0.0,0.0,32,0.00,,---,0.00,VWS V14.01,2013-03-19 19:25:00,
2013-03-19 12:30:00,51.9,22.2,29.97,NNW,344,0.0,0.0,31,0.00,,---,0.00,VWS V14.01,2013-03-19 19:30:00,
2013-03-19 12:35:00,52.3,23.3,29.96,NNW,344,0.0,0.0,32,0.00,,---,0.00,VWS V14.01,2013-03-19 19:35:00,
2013-03-19 12:40:00,52.8,20.6,29.96,NNW,346,0.0,0.0,28,0.00,,---,0.00,VWS V14.01,2013-03-19 19:40:00,
2013-03-19 12:45:00,53.2,20.1,29.96,SSE,161,0.0,0.0,27,0.00,,---,0.00,VWS V14.01,2013-03-19 19:45:00,
2013-03-19 12:50:00,53.5,20.4,29.96,ESE,119,0.0,0.0,27,0.00,,---,0.00,VWS V14.01,2013-03-19 19:50:00,
2013-03-19 12:55:00,53.5,21.2,29.95,ESE,120,0.0,0.0,28,0.00,,---,0.00,VWS V14.01,2013-03-19 19:55:00,
2013-03-19 13:00:00,53.5,20.4,29.95,East,101,0.0,0.0,27,0.00,,---,0.00,VWS V14.01,2013-03-19 20:00:00,
2013-03-19 13:05:00,53.3,21.0,29.95,ESE,111,0.0,0.0,28,0.00,,---,0.00,VWS V14.01,2013-03-19 20:05:00,
2013-03-19 13:10:00,53.6,20.5,29.94,South,188,0.0,0.0,27,0.00,,---,0.00,VWS V14.01,2013-03-19 20:10:00,
2013-03-19 13:15:00,53.9,19.8,29.94,SSE,167,0.0,0.0,26,0.00,,---,0.00,VWS V14.01,2013-03-19 20:15:00,
2013-03-19 13:21:00,54.2,20.1,29.94,SE,130,0.0,0.0,26,0.00,,---,0.00,VWS V14.01,2013-03-19 20:21:00,
2013-03-19 13:26:00,54.5,19.4,29.93,SW,219,0.0,0.0,25,0.00,,---,0.00,VWS V14.01,2013-03-19 20:26:00,
2013-03-19 13:31:00,54.8,18.7,29.93,SE,137,0.0,0.0,24,0.00,,---,0.00,VWS V14.01,2013-03-19 20:31:00,
2013-03-19 13:36:00,54.8,18.7,29.92,SE,132,0.0,0.0,24,0.00,,---,0.00,VWS V14.01,2013-03-19 20:36:00,
2013-03-19 13:41:00,55.0,18.9,29.92,SE,125,0.0,0.0,24,0.00,,---,0.00,VWS V14.01,2013-03-19 20:41:00,
2013-03-19 13:46:00,54.8,18.7,29.92,SE,145,0.0,0.0,24,0.00,,---,0.00,VWS V14.01,2013-03-19 20:46:00,
2013-03-19 13:51:00,54.8,19.7,29.92,SE,140,0.0,0.0,25,0.00,,---,0.00,VWS V14.01,2013-03-19 20:51:00,
2013-03-19 13:56:00,54.8,19.7,29.92,South,174,0.0,0.0,25,0.00,,---,0.00,VWS V14.01,2013-03-19 20:56:00,
2013-03-19 14:01:00,54.8,19.7,29.92,SE,126,0.0,0.0,25,0.00,,---,0.00,VWS V14.01,2013-03-19 21:01:00,
2013-03-19 14:06:00,54.8,21.5,29.92,SW,236,0.0,0.0,27,0.00,,---,0.00,VWS V14.01,2013-03-19 21:06:00,
2013-03-19 14:11:00,54.7,21.4,29.92,SSW,213,0.0,0.0,27,0.00,,---,0.00,VWS V14.01,2013-03-19 21:11:00,
2013-03-19 14:17:00,54.4,22.8,29.92,SW,233,0.0,0.0,29,0.00,,---,0.00,VWS V14.01,2013-03-19 21:17:00,
2013-03-19 14:22:00,53.9,23.2,29.92,SSW,198,0.0,0.0,30,0.00,,---,0.00,VWS V14.01,2013-03-19 21:22:00,
2013-03-19 14:27:00,53.5,22.9,29.92,WSW,246,0.0,0.0,30,0.00,,---,0.00,VWS V14.01,2013-03-19 21:27:00,
2013-03-19 14:32:00,53.1,23.3,29.92,WSW,246,0.0,0.0,31,0.00,,---,0.00,VWS V14.01,2013-03-19 21:32:00,
2013-03-19 14:37:00,52.5,24.2,29.92,SSE,147,0.0,0.0,33,0.00,,---,0.00,VWS V14.01,2013-03-19 21:37:00,
2013-03-19 14:42:00,52.3,24.1,29.92,SW,215,0.0,0.0,33,0.00,,---,0.00,VWS V14.01,2013-03-19 21:42:00,
2013-03-19 14:47:00,52.2,24.7,29.92,SW,223,0.0,0.0,34,0.00,,---,0.00,VWS V14.01,2013-03-19 21:47:00,
2013-03-19 14:52:00,52.3,24.8,29.92,South,175,0.0,0.0,34,0.00,,---,0.00,VWS V14.01,2013-03-19 21:52:00,
2013-03-19 14:57:00,52.3,25.5,29.91,SSW,200,0.0,0.0,35,0.00,,---,0.00,VWS V14.01,2013-03-19 21:57:00,
2013-03-19 15:02:00,52.3,25.5,29.91,SW,226,0.0,0.0,35,0.00,,---,0.00,VWS V14.01,2013-03-19 22:02:00,
2013-03-19 15:07:00,52.2,27.4,29.91,SSW,210,0.0,0.0,38,0.00,,---,0.00,VWS V14.01,2013-03-19 22:07:00,
2013-03-19 15:12:00,52.3,28.7,29.90,SSE,164,0.0,0.0,40,0.00,,---,0.00,VWS V14.01,2013-03-19 22:12:00,
2013-03-19 15:17:00,52.3,30.5,29.90,SE,134,0.0,0.0,43,0.00,,---,0.00,VWS V14.01,2013-03-19 22:17:00,
2013-03-19 15:22:00,52.2,30.4,29.90,South,178,0.0,0.0,43,0.00,,---,0.00,VWS V14.01,2013-03-19 22:22:00,
2013-03-19 15:28:00,51.9,30.7,29.89,SSE,158,0.0,0.0,44,0.00,,---,0.00,VWS V14.01,2013-03-19 22:28:00,
2013-03-19 15:33:00,51.6,31.0,29.89,SSE,148,0.0,0.0,45,0.00,,---,0.00,VWS V14.01,2013-03-19 22:33:00,
2013-03-19 15:38:00,51.6,31.5,29.89,SSE,165,0.0,0.0,46,0.00,,---,0.00,VWS V14.01,2013-03-19 22:38:00,
2013-03-19 15:43:00,51.4,31.9,29.89,SSE,167,0.0,0.0,47,0.00,,---,0.00,VWS V14.01,2013-03-19 22:43:00,
2013-03-19 15:48:00,51.3,33.3,29.89,SE,137,0.0,0.0,50,0.00,,---,0.00,VWS V14.01,2013-03-19 22:48:00,
2013-03-19 15:53:00,51.1,33.1,29.89,SSE,159,0.0,0.0,50,0.00,,---,0.00,VWS V14.01,2013-03-19 22:53:00,
2013-03-19 15:58:00,51.0,33.0,29.88,SSE,150,0.0,0.0,50,0.00,,---,0.00,VWS V14.01,2013-03-19 22:58:00,
2013-03-19 16:03:00,51.0,31.0,29.88,ESE,121,0.0,0.0,46,0.00,,---,0.00,VWS V14.01,2013-03-19 23:03:00,
2013-03-19 16:08:00,51.1,31.6,29.88,SSE,167,0.0,0.0,47,0.00,,---,0.00,VWS V14.01,2013-03-19 23:08:00,
2013-03-19 16:13:00,51.3,31.2,29.88,SE,144,0.0,0.0,46,0.00,,---,0.00,VWS V14.01,2013-03-19 23:13:00,
2013-03-19 16:18:00,51.1,31.6,29.88,SSE,163,0.0,0.0,47,0.00,,---,0.00,VWS V14.01,2013-03-19 23:18:00,
2013-03-19 16:23:00,50.7,31.7,29.87,SE,138,0.0,0.0,48,0.00,,---,0.00,VWS V14.01,2013-03-19 23:23:00,
2013-03-19 16:28:00,50.4,31.5,29.87,SE,142,0.0,0.0,48,0.00,,---,0.00,VWS V14.01,2013-03-19 23:28:00,
2013-03-19 16:33:00,49.9,32.0,29.87,SE,136,0.0,0.0,50,0.00,,---,0.00,VWS V14.01,2013-03-19 23:33:00,
2013-03-19 16:38:00,49.6,32.7,29.87,SE,132,0.0,0.0,52,0.00,,---,0.00,VWS V14.01,2013-03-19 23:38:00,
2013-03-19 16:43:00,49.5,32.6,29.86,East,80,0.0,0.0,52,0.00,,---,0.00,VWS V14.01,2013-03-19 23:43:00,
2013-03-19 16:49:00,49.4,33.0,29.86,ESE,109,0.0,0.0,53,0.00,,---,0.00,VWS V14.01,2013-03-19 23:49:00,
2013-03-19 16:54:00,49.4,33.9,29.86,SE,130,0.0,0.0,55,0.00,,---,0.00,VWS V14.01,2013-03-19 23:54:00,
2013-03-19 16:59:00,49.4,34.4,29.85,South,180,0.0,0.0,56,0.00,,---,0.00,VWS V14.01,2013-03-19 23:59:00,
2013-03-19 17:04:00,49.2,34.2,29.85,SE,125,0.0,0.0,56,0.00,,---,0.00,VWS V14.01,2013-03-20 00:04:00,
2013-03-19 17:09:00,49.1,34.1,29.85,SE,146,0.0,0.0,56,0.00,,---,0.00,VWS V14.01,2013-03-20 00:09:00,
2013-03-19 17:14:00,48.9,33.5,29.85,SSE,150,0.0,0.0,55,0.00,,---,0.00,VWS V14.01,2013-03-20 00:14:00,
2013-03-19 17:19:00,48.8,33.8,29.85,SE,140,0.0,0.0,56,0.00,,---,0.00,VWS V14.01,2013-03-20 00:19:00,
2013-03-19 17:24:00,48.6,34.1,29.85,SE,128,0.0,0.0,57,0.00,,---,0.00,VWS V14.01,2013-03-20 00:24:00,
2013-03-19 17:29:00,48.5,34.4,29.85,SSW,211,0.0,0.0,58,0.00,,---,0.00,VWS V14.01,2013-03-20 00:29:00,
2013-03-19 17:34:00,48.2,33.7,29.85,SSE,154,0.0,0.0,57,0.00,,---,0.00,VWS V14.01,2013-03-20 00:34:00,
2013-03-19 17:39:00,48.0,33.9,29.84,SSE,147,0.0,0.0,58,0.00,,---,0.00,VWS V14.01,2013-03-20 00:39:00,
2013-03-19 17:44:00,47.9,34.7,29.84,SE,125,0.0,0.0,60,0.00,,---,0.00,VWS V14.01,2013-03-20 00:44:00,
2013-03-19 17:49:00,47.6,34.4,29.83,SE,146,0.0,0.0,60,0.00,,---,0.00,VWS V14.01,2013-03-20 00:49:00,
2013-03-19 17:54:00,47.3,34.1,29.83,SE,140,0.0,0.0,60,0.00,,---,0.00,VWS V14.01,2013-03-20 00:54:00,
2013-03-19 17:59:00,47.0,34.7,29.83,South,191,0.0,0.0,62,0.00,,---,0.00,VWS V14.01,2013-03-20 00:59:00,
2013-03-19 18:04:00,46.7,35.2,29.83,SE,124,0.0,0.0,64,0.00,,---,0.00,VWS V14.01,2013-03-20 01:04:00,
2013-03-19 18:10:00,46.2,35.1,29.82,SE,134,0.0,0.0,65,0.00,,---,0.00,VWS V14.01,2013-03-20 01:10:00,
2013-03-19 18:15:00,46.0,35.7,29.82,SE,138,0.0,0.0,67,0.00,,---,0.00,VWS V14.01,2013-03-20 01:15:00,
2013-03-19 18:20:00,45.7,36.1,29.82,SE,135,0.0,0.0,69,0.00,,---,0.00,VWS V14.01,2013-03-20 01:20:00,
2013-03-19 18:25:00,45.4,36.2,29.81,ESE,122,0.0,0.0,70,0.00,,---,0.00,VWS V14.01,2013-03-20 01:25:00,
2013-03-19 18:30:00,45.1,36.3,29.81,East,81,0.0,0.0,71,0.00,,---,0.00,VWS V14.01,2013-03-20 01:30:00,
2013-03-19 18:35:00,44.9,36.4,29.81,SE,138,0.0,0.0,72,0.00,,---,0.00,VWS V14.01,2013-03-20 01:35:00,
2013-03-19 18:40:00,44.6,36.5,29.80,ESE,117,0.0,0.0,73,0.00,,---,0.00,VWS V14.01,2013-03-20 01:40:00,
2013-03-19 18:45:00,44.6,36.5,29.80,SE,126,0.0,0.0,73,0.00,,---,0.00,VWS V14.01,2013-03-20 01:45:00,
2013-03-19 18:50:00,44.5,36.7,29.80,ESE,116,0.0,0.0,74,0.00,,---,0.00,VWS V14.01,2013-03-20 01:50:00,
2013-03-19 18:55:00,44.5,37.1,29.79,ESE,117,0.0,0.0,75,0.00,,---,0.00,VWS V14.01,2013-03-20 01:55:00,
2013-03-19 19:00:00,44.3,36.9,29.79,ESE,107,0.0,0.0,75,0.00,,---,0.00,VWS V14.01,2013-03-20 02:00:00,
2013-03-19 19:05:00,44.3,37.2,29.79,ESE,119,0.0,0.0,76,0.00,,---,0.00,VWS V14.01,2013-03-20 02:05:00,
2013-03-19 19:10:00,44.3,37.6,29.78,SE,128,0.0,0.0,77,0.00,,---,0.00,VWS V14.01,2013-03-20 02:10:00,
2013-03-19 19:15:00,44.2,37.5,29.78,ESE,107,0.0,0.0,77,0.00,,---,0.00,VWS V14.01,2013-03-20 02:15:00,
2013-03-19 19:20:00,44.1,37.4,29.77,ESE,122,0.0,0.0,77,0.00,,---,0.00,VWS V14.01,2013-03-20 02:20:00,
2013-03-19 19:26:00,43.9,37.2,29.77,ESE,105,0.0,0.0,77,0.00,,---,0.00,VWS V14.01,2013-03-20 02:26:00,
2013-03-19 19:31:00,43.6,36.9,29.76,ESE,117,0.0,0.0,77,0.00,,---,0.00,VWS V14.01,2013-03-20 02:31:00,
2013-03-19 19:36:00,43.5,37.1,29.76,East,98,0.0,0.0,78,0.00,,---,0.00,VWS V14.01,2013-03-20 02:36:00,
2013-03-19 19:41:00,43.3,36.9,29.75,SE,126,0.0,0.0,78,0.00,,---,0.00,VWS V14.01,2013-03-20 02:41:00,
2013-03-19 19:46:00,43.3,36.9,29.75,ESE,117,0.0,0.0,78,0.00,,---,0.00,VWS V14.01,2013-03-20 02:46:00,
2013-03-19 19:51:00,43.3,36.9,29.74,SE,128,0.0,0.0,78,0.00,,---,0.00,VWS V14.01,2013-03-20 02:51:00,
2013-03-19 19:56:00,43.2,37.1,29.74,SE,133,0.0,0.0,79,0.00,,---,0.00,VWS V14.01,2013-03-20 02:56:00,
2013-03-19 20:01:00,43.2,37.1,29.74,SE,140,0.0,0.0,79,0.00,,---,0.00,VWS V14.01,2013-03-20 03:01:00,
2013-03-19 20:07:00,43.1,37.0,29.74,East,80,0.0,0.0,79,0.00,,---,0.00,VWS V14.01,2013-03-20 03:07:00,
2013-03-19 20:12:00,43.1,37.0,29.73,ESE,106,0.0,0.0,79,0.00,,---,0.00,VWS V14.01,2013-03-20 03:12:00,
2013-03-19 20:17:00,43.1,37.0,29.73,East,96,0.0,0.0,79,0.00,,---,0.00,VWS V14.01,2013-03-20 03:17:00,
2013-03-19 20:22:00,43.1,37.0,29.73,ESE,122,0.0,0.0,79,0.00,,---,0.00,VWS V14.01,2013-03-20 03:22:00,
2013-03-19 20:27:00,43.1,37.4,29.73,ESE,111,0.0,0.0,80,0.00,,---,0.00,VWS V14.01,2013-03-20 03:27:00,
2013-03-19 20:32:00,42.9,37.2,29.72,East,94,0.0,0.0,80,0.00,,---,0.00,VWS V14.01,2013-03-20 03:32:00,
2013-03-19 20:37:00,42.9,37.2,29.72,ESE,115,0.0,0.0,80,0.00,,---,0.00,VWS V14.01,2013-03-20 03:37:00,
2013-03-19 20:42:00,42.9,37.2,29.71,ESE,109,0.0,0.0,80,0.00,,---,0.00,VWS V14.01,2013-03-20 03:42:00,
2013-03-19 20:47:00,42.9,37.2,29.70,ESE,119,0.0,0.0,80,0.00,,---,0.00,VWS V14.01,2013-03-20 03:47:00,
2013-03-19 20:52:00,42.9,37.5,29.70,East,90,0.0,0.0,81,0.00,,---,0.00,VWS V14.01,2013-03-20 03:52:00,
2013-03-19 20:57:00,42.9,37.5,29.69,ESE,103,0.0,0.0,81,0.00,,---,0.00,VWS V14.01,2013-03-20 03:57:00,
2013-03-19 21:00:00,42.8,37.4,29.69,East,88,0.0,0.0,81,0.00,,---,0.00,VWS V14.01,2013-03-20 04:00:00,
2013-03-19 21:05:00,42.8,37.4,29.68,ESE,117,0.0,0.0,81,0.00,,---,0.00,VWS V14.01,2013-03-20 04:05:00,
2013-03-19 21:10:00,42.8,37.4,29.68,ENE,67,0.0,0.0,81,0.00,,---,0.00,VWS V14.01,2013-03-20 04:10:00,
2013-03-19 21:15:00,42.6,37.2,29.68,East,89,0.0,0.0,81,0.00,,---,0.00,VWS V14.01,2013-03-20 04:15:00,
2013-03-19 21:20:00,42.6,37.2,29.67,ESE,115,0.0,0.0,81,0.00,,---,0.00,VWS V14.01,2013-03-20 04:20:00,
2013-03-19 21:26:00,42.6,37.2,29.67,SE,136,0.0,0.0,81,0.00,,---,0.00,VWS V14.01,2013-03-20 04:26:00,
2013-03-19 21:31:00,42.6,37.2,29.67,ESE,113,0.0,0.0,81,0.00,,---,0.00,VWS V14.01,2013-03-20 04:31:00,
2013-03-19 21:36:00,42.6,37.5,29.67,ESE,121,0.0,0.0,82,0.00,,---,0.00,VWS V14.01,2013-03-20 04:36:00,
2013-03-19 21:41:00,42.8,37.7,29.67,ENE,71,0.0,0.0,82,0.00,,---,0.00,VWS V14.01,2013-03-20 04:41:00,
2013-03-19 21:46:00,42.8,37.7,29.66,East,88,0.0,0.0,82,0.00,,---,0.00,VWS V14.01,2013-03-20 04:46:00,
2013-03-19 21:51:00,42.8,37.7,29.66,East,97,0.0,0.0,82,0.00,,---,0.00,VWS V14.01,2013-03-20 04:51:00,
2013-03-19 21:57:00,42.8,37.7,29.65,East,96,0.0,0.0,82,0.00,,---,0.00,VWS V14.01,2013-03-20 04:57:00,
2013-03-19 22:02:00,42.8,37.7,29.64,East,101,0.0,0.0,82,0.00,,---,0.00,VWS V14.01,2013-03-20 05:02:00,
2013-03-19 22:07:00,42.6,37.5,29.64,ESE,106,0.0,0.0,82,0.00,,---,0.00,VWS V14.01,2013-03-20 05:07:00,
2013-03-19 22:12:00,42.6,37.5,29.64,ESE,106,0.0,0.0,82,0.00,,---,0.00,VWS V14.01,2013-03-20 05:12:00,
2013-03-19 22:17:00,42.8,37.7,29.64,SE,141,0.0,0.0,82,0.00,,---,0.00,VWS V14.01,2013-03-20 05:17:00,
2013-03-19 22:22:00,42.8,37.7,29.63,SE,141,0.0,0.0,82,0.00,,---,0.00,VWS V14.01,2013-03-20 05:22:00,
2013-03-19 22:27:00,42.6,37.5,29.63,East,99,0.0,0.0,82,0.00,,---,0.00,VWS V14.01,2013-03-20 05:27:00,
2013-03-19 22:32:00,42.6,37.5,29.63,SSE,156,0.0,0.0,82,0.00,,---,0.00,VWS V14.01,2013-03-20 05:32:00,
2013-03-19 22:37:00,42.6,37.5,29.63,SE,134,0.0,0.0,82,0.00,,---,0.00,VWS V14.01,2013-03-20 05:37:00,
2013-03-19 22:42:00,42.8,37.7,29.62,SE,134,0.0,0.0,82,0.00,,---,0.00,VWS V14.01,2013-03-20 05:42:00,
2013-03-19 22:48:00,42.8,37.7,29.62,SE,134,0.0,0.0,82,0.00,,---,0.00,VWS V14.01,2013-03-20 05:48:00,
2013-03-19 22:53:00,42.8,37.7,29.62,SE,134,0.0,0.0,82,0.00,,---,0.00,VWS V14.01,2013-03-20 05:53:00,
2013-03-19 22:58:00,42.8,37.7,29.61,SE,134,0.0,0.0,82,0.00,,---,0.00,VWS V14.01,2013-03-20 05:58:00,
2013-03-19 23:03:00,42.8,37.7,29.61,SE,134,0.0,0.0,82,0.00,,---,0.00,VWS V14.01,2013-03-20 06:03:00,
2013-03-19 23:08:00,42.9,37.8,29.61,SE,134,0.0,0.0,82,0.00,,---,0.00,VWS V14.01,2013-03-20 06:08:00,
2013-03-19 23:13:00,42.9,37.8,29.61,SE,134,0.0,0.0,82,0.00,,---,0.00,VWS V14.01,2013-03-20 06:13:00,
2013-03-19 23:18:00,42.9,37.8,29.61,SE,134,0.0,0.0,82,0.00,,---,0.00,VWS V14.01,2013-03-20 06:18:00,
2013-03-19 23:23:00,43.1,38.0,29.60,SE,134,0.0,0.0,82,0.00,,---,0.00,VWS V14.01,2013-03-20 06:23:00,
2013-03-19 23:29:00,43.1,38.0,29.60,SE,134,0.0,0.0,82,0.00,,---,0.00,VWS V14.01,2013-03-20 06:29:00,
2013-03-19 23:34:00,43.1,38.3,29.59,SE,134,0.0,0.0,83,0.00,,---,0.00,VWS V14.01,2013-03-20 06:34:00,
2013-03-19 23:39:00,43.1,38.3,29.59,SE,134,0.0,0.0,83,0.00,,---,0.00,VWS V14.01,2013-03-20 06:39:00,
2013-03-19 23:44:00,43.1,38.3,29.58,SE,134,0.0,0.0,83,0.00,,---,0.00,VWS V14.01,2013-03-20 06:44:00,
2013-03-19 23:49:00,43.2,38.4,29.58,SE,134,0.0,0.0,83,0.00,,---,0.00,VWS V14.01,2013-03-20 06:49:00,
2013-03-19 23:54:00,43.1,38.3,29.58,East,98,0.0,0.0,83,0.00,,---,0.00,VWS V14.01,2013-03-20 06:54:00,
2013-03-19 23:59:00,43.1,38.3,29.57,SE,124,0.0,0.0,83,0.00,,---,0.00,VWS V14.01,2013-03-20 06:59:00,